Mount Holly, NJ

8:31 AM EST on December 08, 2019 (GMT -0500)
South Jersey Regional

Weather History for KVAY - September, 2019

Change the Weather History Date:

Friday, September 27, 2019

  Actual Average (WUND) Record (WUND)
Temperature  
Mean Temperature 53 °F -  
Max Temperature 79 °F - - (-1)
Min Temperature 28 °F - - (-1)
Degree Days  
Heating Degree Days 12    
Growing Degree Days 3 (Base 50)    
Moisture  
Dew Point 52 °F    
Average Humidity 86    
Maximum Humidity 100    
Minimum Humidity 33    
Precipitation  
Precipitation 0.00 in - - ()
Sea Level Pressure  
Sea Level Pressure 30.04 in    
Wind  
Wind Speed 1 mph (SE)    
Max Wind Speed 5 mph    
Max Gust Speed -    
Visibility 4 miles    
Events Fog    
Averages and records for this station are not official NWS values.
T = Trace of Precipitation, MM = Missing Value Source: NWS Daily Summary

Daily Weather History Graph

Daily Weather History Graph

Search for Another Location

Airport or City:

Astronomy

Sep. 27, 2019 Rise Set
Actual Time 6:51 AM EDT 6:48 PM EDT
Civil Twilight 6:24 AM EDT 7:15 PM EDT
Nautical Twilight 5:53 AM EDT 7:46 PM EDT
Astronomical Twilight 5:21 AM EDT 8:18 PM EDT
Moon 5:09 AM EDT (9/27) 6:37 PM EDT (9/27)
Length of Visible Light 12h 51m
Length of Day
11h 57m
Waning Crescent, 2% of the Moon is Illuminated
Sep 27
Waning Crescent
Sep 28
New
Oct 5
First Quarter
Oct 13
Full
Oct 21
Last Quarter

Hourly Weather History & Observations

Time (EDT) Temp. Dew Point Humidity Pressure Visibility Wind Dir Wind Speed Gust Speed Precip Events Conditions
12:12 AM 57.9 °F 55.9 °F 93% 29.96 in 1.2 mi Calm Calm - N/A   Mist
12:19 AM 57.0 °F 55.0 °F 93% 29.96 in 0.8 mi SSE 3.5 mph - N/A   Mist
12:26 AM 57.0 °F 55.0 °F 93% 29.96 in 1.0 mi Calm Calm - N/A   Mist
12:31 AM 57.0 °F 55.0 °F 93% 29.96 in 2.5 mi Calm Calm - N/A   Partly Cloudy
12:40 AM 57.0 °F 55.0 °F 93% 29.97 in 1.2 mi Calm Calm - N/A   Partly Cloudy
12:49 AM 55.4 °F 55.4 °F 100% 29.96 in 0.8 mi Calm Calm - N/A   Mist
12:54 AM 55.9 °F 54.0 °F 93% 29.97 in 0.8 mi Calm Calm - N/A   Mist
12:59 AM 55.9 °F 54.0 °F 93% 29.97 in 1.2 mi South 3.5 mph - N/A   Partly Cloudy
1:07 AM 57.0 °F 55.0 °F 93% 29.97 in 3.0 mi Calm Calm - N/A   Partly Cloudy
1:15 AM 57.0 °F 55.0 °F 93% 29.97 in 2.5 mi Calm Calm - N/A   Clear
1:20 AM 55.9 °F 55.0 °F 97% 29.97 in 2.5 mi Calm Calm - N/A   Partly Cloudy
1:24 AM 55.9 °F 55.0 °F 97% 29.97 in 1.0 mi Calm Calm - N/A   Mist
1:31 AM 55.9 °F 54.0 °F 93% 29.97 in 0.5 mi Calm Calm - N/A Fog Fog
1:35 AM 55.9 °F 54.0 °F 93% 29.97 in 1.2 mi Calm Calm - N/A   Partly Cloudy
1:38 AM 55.9 °F 54.0 °F 93% 29.97 in 3.0 mi Calm Calm - N/A   Partly Cloudy
1:46 AM 55.0 °F 54.0 °F 96% 29.98 in 0.8 mi South 3.5 mph - N/A   Mist
1:54 AM 55.0 °F 54.0 °F 96% 29.98 in 0.5 mi Calm Calm - N/A Fog Fog
2:15 AM 42.1 °F 42.1 °F 100% 29.99 in 1.2 mi Calm Calm - N/A   Partly Cloudy
2:18 AM 28.0 °F 28.0 °F 100% 29.99 in 3.0 mi Calm Calm - N/A   Partly Cloudy
2:37 AM 55.0 °F 53.1 °F 93% 29.99 in 1.0 mi Calm Calm - N/A   Mist
2:47 AM 55.9 °F 54.0 °F 93% 30.00 in 3.0 mi Calm Calm - N/A   Partly Cloudy
2:54 AM 55.0 °F 53.1 °F 93% 30.00 in 5.0 mi Calm Calm - N/A   Partly Cloudy
3:22 AM 54.0 °F 52.0 °F 93% 30.01 in 1.2 mi Calm Calm - N/A   Scattered Clouds
3:24 AM 54.0 °F 52.0 °F 93% 30.01 in 0.8 mi Calm Calm - N/A   Mist
3:54 AM 54.0 °F 52.0 °F 93% 30.02 in 0.2 mi Calm Calm - N/A Fog Fog
4:16 AM 53.1 °F 51.1 °F 93% 30.02 in 0.2 mi Calm Calm - N/A Fog Fog
4:32 AM 52.0 °F 51.1 °F 97% 30.03 in 1.2 mi Calm Calm - N/A   Mist
4:42 AM 53.1 °F 51.1 °F 93% 30.03 in 3.0 mi Calm Calm - N/A   Mist
4:46 AM 52.0 °F 51.1 °F 97% 30.04 in 2.0 mi Calm Calm - N/A   Scattered Clouds
4:48 AM 51.8 °F 51.8 °F 100% 30.04 in 1.0 mi Calm Calm - N/A   Mist
4:54 AM 52.0 °F 50.0 °F 93% 30.04 in 0.5 mi Calm Calm - N/A Fog Fog
5:18 AM 52.0 °F 51.1 °F 97% 30.04 in 0.2 mi Calm Calm - N/A Fog Fog
5:47 AM 52.0 °F 50.0 °F 93% 30.05 in 1.0 mi Calm Calm - N/A   Mist
5:49 AM 51.8 °F 50.0 °F 94% 30.05 in 2.5 mi Calm Calm - N/A   Mostly Cloudy
5:54 AM 52.0 °F 50.0 °F 93% 30.06 in 4.0 mi Calm Calm - N/A   Mostly Cloudy
6:03 AM 51.1 °F 50.0 °F 96% 30.06 in 2.0 mi Calm Calm - N/A   Mist
6:06 AM 51.1 °F 50.0 °F 96% 30.06 in 1.0 mi Calm Calm - N/A   Mist
6:20 AM 51.1 °F 48.9 °F 92% 30.07 in 1.2 mi Calm Calm - N/A   Mist
6:24 AM 52.0 °F 50.0 °F 93% 30.07 in 0.8 mi Calm Calm - N/A   Mist
6:54 AM 50.0 °F 48.9 °F 96% 30.08 in 0.2 mi Calm Calm - N/A Fog Fog
7:11 AM 50.0 °F 48.9 °F 96% 30.08 in 1.5 mi Calm Calm - N/A   Mist
7:16 AM 50.0 °F 48.9 °F 96% 30.09 in 0.8 mi Calm Calm - N/A   Mist
7:32 AM 51.1 °F 51.1 °F 100% 30.10 in 0.2 mi Calm Calm - N/A Fog Fog
7:39 AM 52.0 °F 52.0 °F 100% 30.10 in 1.0 mi Calm Calm - N/A   Mist
7:43 AM 52.0 °F 51.1 °F 97% 30.10 in 2.5 mi Calm Calm - N/A   Mist
7:50 AM 53.6 °F 53.6 °F 100% 30.10 in 7.0 mi Calm Calm - N/A   Unknown
7:54 AM 54.0 °F 53.1 °F 97% 30.11 in 10.0 mi Calm Calm - N/A   Unknown
8:54 AM 61.0 °F 57.9 °F 90% 30.13 in 10.0 mi North 3.5 mph - N/A   Clear
9:54 AM 68.0 °F 57.0 °F 68% 30.14 in 10.0 mi North 4.6 mph - N/A   Clear
10:54 AM 72.0 °F 52.0 °F 49% 30.14 in 10.0 mi North 4.6 mph - N/A   Clear
11:54 AM 73.9 °F 50.0 °F 43% 30.15 in 10.0 mi Calm Calm - N/A   Clear
12:54 PM 75.0 °F 46.9 °F 37% 30.13 in 10.0 mi Calm Calm - N/A   Clear
1:54 PM 78.1 °F 46.9 °F 33% 30.11 in 10.0 mi Variable 3.5 mph - N/A   Clear
2:54 PM 78.1 °F 48.0 °F 35% 30.09 in 10.0 mi Variable 3.5 mph - N/A   Clear
3:54 PM 78.1 °F 51.1 °F 39% 30.08 in 10.0 mi North - - N/A   Clear
4:54 PM 77.0 °F 52.0 °F 42% 30.09 in 10.0 mi South 3.5 mph - N/A   Clear
5:54 PM 73.9 °F 59.0 °F 59% 30.09 in 10.0 mi Variable 3.5 mph - N/A   Clear
6:54 PM 70.0 °F 59.0 °F 68% 30.11 in 10.0 mi SE 4.6 mph - N/A   Clear
7:54 PM 66.9 °F 59.0 °F 76% 30.12 in 10.0 mi SSE 3.5 mph - N/A   Clear
8:54 PM 64.9 °F 57.9 °F 78% 30.14 in 10.0 mi Variable 3.5 mph - N/A   Clear
9:54 PM 63.0 °F 57.9 °F 84% 30.14 in 10.0 mi Calm Calm - N/A   Clear
10:54 PM 62.1 °F 57.9 °F 86% 30.14 in 10.0 mi Calm Calm - N/A   Clear
11:54 PM 62.1 °F 57.0 °F 84% 30.13 in 10.0 mi Calm Calm - N/A   Clear